Regional Weather Roundup
Issued by NWS Green Bay, WI

Home | Current Version | Previous Version | Graphics & Text | Print | Product List | Glossary Off
Versions: 1 2 3 4 5 6 7 8 9 10 11 12 13 14 15 16 17 18 19 20 21 22 23 24 25 26 27 28 29 30 31 32 33 34 35 36 37 38 39 40 41 42 43 44 45 46 47 48 49 50

000
ASUS43 KGRB 251559
RWRGRB

NORTH-CENTRAL AND NORTHEAST WISCONSIN REGIONAL WEATHER ROUNDUP
NATIONAL WEATHER SERVICE GREEN BAY WI
1000 AM CST TUE NOV 25 2014

WIZ005-009-010>012-018-019-251700-
NORTH CENTRAL WISCONSIN

CITY           SKY/WX    TMP DP  RH WIND       PRES   REMARKS
IRONWOOD       CLOUDY    16  14  93 W12       29.93R WCI   3
MANITOWISH WTR NOT AVBL
ARBOR VITAE    NOT AVBL
EAGLE RIVER    NOT AVBL
LAND O LAKES   NOT AVBL
RHINELANDER    LGT SNOW  16  10  77 W10       29.92R WCI   4
PHILLIPS       NOT AVBL
ANTIGO         NOT AVBL
TOMAHAWK       NOT AVBL
MERRILL        NOT AVBL
$$

WIZ013-073-251700-
NORTHEAST WISCONSIN

CITY           SKY/WX    TMP DP  RH WIND       PRES   REMARKS
IRON MOUNTAIN  CLOUDY    22  11  62 NW13      29.89R WCI  10
MARINETTE      CLOUDY    25  18  74 NW9       29.94R
$$

WIZ017-030-035>037-045-251700-
CENTRAL WISCONSIN

CITY           SKY/WX    TMP DP  RH WIND       PRES   REMARKS
MEDFORD        NOT AVBL
WAUSAU         SUNNY     19  11  70 NW10      29.96R WCI   7
MOSINEE        FLURRIES  18  16  93 W9        29.98R WCI   6
MARSHFIELD     FLURRIES  17  10  74 NW12      29.99R WCI   4
WISC RAPIDS    CLOUDY    19  10  68 NW10      30.03R WCI   7
STEVENS POINT  NOT AVBL
WAUPACA        NOT AVBL
SHAWANO        NOT AVBL
CLINTONVILLE   NOT AVBL
$$

WIZ038-039-048-051-251700-
FOX VALLEY

CITY           SKY/WX    TMP DP  RH WIND       PRES   REMARKS
NWS GREEN BAY  MOSUNNY   25  18  74 W12       29.98R
APPLETON       PTSUNNY   23  18  80 W13       29.98R
OSHKOSH        CLOUDY    22  15  75 W10       30.00R
FOND DU LAC    CLOUDY    22  14  71 NW17G23   30.01R WCI   8
$$

WIZ022-050-052-251700-
EAST CENTRAL WISCONSIN

CITY           SKY/WX    TMP DP  RH WIND       PRES   REMARKS
STURGEON BAY   CLOUDY    25  18  74 W14       29.94R
MANITOWOC      NOT AVBL
SHEBOYGAN      PTSUNNY   24  18  77 W12       29.99R
$$

LMZ563-521-522-541>543-251700-
LAKESHORE

STATION/POSITION TIME  TEMP    WIND        PRES    VSBY  WAVE
                       AIR SEA DIR/SP/G                  HT/PER
                 (UTC) (F)     (DEG/KT/KT) (MB)    (MI)  (FT/S)
SHEBOYGAN LKSHOR 1500   24 37  280/ 13/ 17 1015.8R
KEWAUNEE LKSHORE 1500   25     290/  9/ 13 1013.2R
NORTHPORT PIER   1500   26     300/ 15/ 20 1012.2R
N MID LAKE BUOY  1500   29 42  310/ 23/ 27 1011.1R         5/ 5
SISTER BAY LKSHO 1500          330/ 21/ 25   N/A
CHAMBERS ISLAND  1500   26     280/  6/ 13 1013.5R
MENOMINEE LKSHOR 1500   26     290/  7/ 14 1014.1R
$$



USA.gov is the U.S. government's official web portal to all federal, state and local government web resources and services.